Location: Prairie State College
(41.5244°N, 87.6382°W)
Time: 10:09:15
(UTC-06:00)

Amateur Radio Satellites - All Passes

Search period start: 24 November 2014 09:39
Search period end: 25 November 2014 09:39
Location: Prairie State College, 41.5244°N, 87.6382°W

Satellite Date Start Highest point End Downlink Frequencies (MHz)
Time Altitude Azimuth
BRITE-PL 24 Nov 09:40:02 09:43:45 32° 290° (WNW) 09:47:27 437.365/2234.400
DUCHIFAT 1 24 Nov 09:42:28 09:46:40 59° 74° (ENE) 09:50:51 145.980
DX 1 24 Nov 09:43:16 09:47:39 81° 103° (ESE) 09:51:59 434.975-435.025
TIGRISAT 24 Nov 09:47:51 09:52:07 84° 257° (WSW) 09:56:24 435.000
HO-68 24 Nov 09:49:07 09:55:59 50° 294° (WNW) 10:02:47 435.675
AAUSAT CUBESAT 2 24 Nov 09:49:10 09:53:04 36° 289° (WNW) 09:56:57 437.432
CANX-2 24 Nov 09:54:08 09:57:22 21° 293° (WNW) 10:00:35 2200.000
ESTCUBE 1 24 Nov 09:57:39 09:59:59 14° 91° (E) 10:02:17 437.505/2401.250
UNISAT 6 24 Nov 10:00:29 10:04:42 59° 259° (W) 10:08:56 437.425
NANOSAT C BR1 24 Nov 10:01:29 10:05:45 83° 256° (WSW) 10:10:01 145.865
COMPASS 1 24 Nov 10:03:30 10:06:54 24° 292° (WNW) 10:10:17 437.405
DELFI C3 24 Nov 10:04:03 10:08:08 57° 286° (WNW) 10:12:11 145.870
VELOX 1 24 Nov 10:04:34 10:08:46 41° 99° (E) 10:12:56 145.980
HUMSAT D 24 Nov 10:07:57 10:11:57 44° 99° (E) 10:15:58 437.325/437.525
50 SAT 24 Nov 10:09:56 10:13:44 38° 98° (E) 10:17:33 437.505
ZACube-1 24 Nov 10:09:56 10:14:10 81° 102° (ESE) 10:18:28 437.345
QB50P1 24 Nov 10:11:09 10:15:23 64° 259° (WSW) 10:19:38 145.935-145.965
DOVE 4 24 Nov 10:26:42 10:29:43 20° 293° (WNW) 10:32:47 437.250
AISAT 24 Nov 10:29:27 10:33:54 81° 103° (ESE) 10:38:19 437.250
ANTELSAT 24 Nov 10:29:41 10:33:23 28° 264° (W) 10:37:05 437.575/2403.000
CUTE 1.7 & AOD 2 24 Nov 10:31:27 10:31:59 10° 299° (WNW) 10:32:30 437.475
BUGSAT 1 24 Nov 10:32:07 10:36:12 44° 261° (W) 10:40:16 437.445
POPSAT HIP 1 24 Nov 10:36:09 10:40:02 34° 263° (W) 10:43:55 437.405
FUNcube-1 24 Nov 10:45:48 10:49:45 40° 288° (WNW) 10:53:45 145.935
UKube-1 24 Nov 10:46:33 10:49:55 23° 294° (WNW) 10:53:17 .
CUBEBUG 1 24 Nov 10:49:42 10:53:55 47° 99° (E) 10:58:06 437.445
SO-50 24 Nov 10:56:14 10:58:57 15° 37° (NE) 11:01:41 436.795
Oscar 11 24 Nov 11:00:10 11:02:33 15° 296° (WNW) 11:04:57 145.826/435.025
CUBEBUG 2 24 Nov 11:03:32 11:06:40 21° 293° (WNW) 11:09:50 437.445
UWE-3 24 Nov 11:07:43 11:10:54 21° 293° (WNW) 11:14:08 435.000/436.395/437.385
POLYITAN 1 24 Nov 11:10:13 11:12:42 15° 268° (W) 11:15:11 437.675
QB50P2 24 Nov 11:13:16 11:15:31 14° 269° (W) 11:17:47 145.880/145.840
Oscar 19 24 Nov 11:20:37 11:24:11 20° 63° (ENE) 11:27:45 437.125/150
DUCHIFAT 1 24 Nov 11:21:21 11:22:54 12° 270° (W) 11:24:28 145.980
DX 1 24 Nov 11:22:31 11:23:14 10° 300° (WNW) 11:23:56 434.975-435.025
ESTCUBE 1 24 Nov 11:32:45 11:37:13 57° 287° (WNW) 11:41:39 437.505/2401.250
VELOX 1 24 Nov 11:41:57 11:45:04 19° 295° (WNW) 11:48:09 145.980
HUMSAT D 24 Nov 11:44:53 11:47:26 16° 295° (WNW) 11:49:59 437.325/437.525
50 SAT 24 Nov 11:46:05 11:48:47 17° 294° (WNW) 11:51:28 437.505
YUBILEINY 24 Nov 11:54:07 12:00:13 20° 63° (ENE) 12:06:16 435.215
AISAT 24 Nov 12:08:55 12:09:52 11° 300° (WNW) 12:10:50 437.250
ITAMSAT 1 24 Nov 12:09:06 12:13:03 22° 64° (ENE) 12:17:00 435.822/435.867
ITUPSAT 1 24 Nov 12:14:03 12:16:46 15° 91° (E) 12:19:27 437.325
TISAT 1 24 Nov 12:17:15 12:21:28 72° 285° (WNW) 12:25:38 437.305
SPROUT 24 Nov 12:21:14 12:25:31 75° 285° (WNW) 12:29:47 437.525
SWISSCUBE 24 Nov 12:24:58 12:28:38 21° 94° (E) 12:32:16 437.505
CUBEBUG 1 24 Nov 12:27:09 12:29:55 17° 296° (WNW) 12:32:41 437.445
AUBIESAT-1 24 Nov 12:27:43 12:31:47 25° 99° (E) 12:35:45 437.475
Gurwin Techsat 1B 24 Nov 12:30:44 12:34:34 21° 63° (ENE) 12:38:24 435.225
M-CUBED/EXP-1 PRIME 24 Nov 12:31:26 12:35:46 30° 100° (E) 12:40:01 437.505
SO-50 24 Nov 12:35:24 12:40:18 79° 56° (ENE) 12:45:12 436.795
AO-7 24 Nov 12:41:06 12:44:16 13° 43° (NE) 12:47:26 29.400- 29.500
BEESAT 24 Nov 12:55:49 13:00:21 40° 98° (E) 13:04:50 436.000
Oscar 19 24 Nov 12:58:07 13:03:06 54° 260° (W) 13:08:07 437.125/150
CUSAT 1 24 Nov 12:58:49 13:01:37 84° 279° (W) 13:04:13 437.405
DANDE 24 Nov 13:16:46 13:19:37 53° 281° (W) 13:22:12 436.750
ITAMSAT 1 24 Nov 13:47:10 13:52:12 48° 260° (W) 13:57:15 435.822/435.867
YUBILEINY 24 Nov 13:49:27 13:58:13 86° 264° (W) 14:06:53 435.215
ITUPSAT 1 24 Nov 13:50:17 13:55:02 59° 287° (WNW) 13:59:44 437.325
KKS-1 24 Nov 13:51:30 13:55:27 31° 97° (E) 13:59:24 437.445
JAS-2 24 Nov 14:00:54 14:02:55 11° 48° (NE) 14:04:55 435.910
SWISSCUBE 24 Nov 14:02:09 14:06:39 41° 290° (WNW) 14:11:07 437.505
AUBIESAT-1 24 Nov 14:02:15 14:06:49 39° 295° (WNW) 14:11:19 437.475
HORYU 2 24 Nov 14:05:41 14:10:04 67° 74° (ENE) 14:14:29 437.375
M-CUBED/EXP-1 PRIME 24 Nov 14:06:19 14:10:45 34° 296° (WNW) 14:15:08 437.505
Gurwin Techsat 1B 24 Nov 14:08:55 14:14:06 54° 260° (W) 14:19:20 435.225
PHONESAT 2.4 24 Nov 14:09:31 14:11:11 13° 146° (SE) 14:12:51 2401.200-2431.200
SO-50 24 Nov 14:18:02 14:20:13 13° 253° (WSW) 14:22:25 436.795
RS-15 24 Nov 14:18:16 14:25:33 21° 100° (E) 14:32:47 29.354- 29.394
VERMONT LUNAR 24 Nov 14:26:26 14:29:14 21° 152° (SSE) 14:32:03 437.305
AO-7 24 Nov 14:27:14 14:35:11 54° 64° (ENE) 14:43:12 29.400- 29.500
BEESAT 24 Nov 14:34:14 14:37:57 23° 295° (WNW) 14:41:38 436.000
STARS 24 Nov 14:50:40 14:55:04 87° 284° (WNW) 14:59:28 437.465
MaSat-1 24 Nov 15:15:32 15:18:35 88° 296° (WNW) 15:21:21 437.345
KKS-1 24 Nov 15:28:22 15:31:58 25° 293° (WNW) 15:35:33 437.445
O/OREOS (USA 219) 24 Nov 15:34:32 15:38:57 59° 65° (ENE) 15:43:22 437.305
JAS-2 24 Nov 15:38:51 15:46:07 51° 68° (ENE) 15:53:39 435.910
HORYU 2 24 Nov 15:45:52 15:47:12 11° 270° (W) 15:48:32 437.375
PHONESAT 2.4 24 Nov 15:45:53 15:49:25 43° 161° (SSE) 15:52:58 2401.200-2431.200
YUBILEINY 24 Nov 15:48:43 15:53:37 17° 284° (WNW) 15:58:31 435.215
VERMONT LUNAR 24 Nov 16:03:47 16:07:22 60° 168° (SSE) 16:10:57 437.305
Cubesat XI-IV 24 Nov 16:14:08 16:18:22 24° 64° (ENE) 16:22:37 437.490
MOZHAYETS 4 24 Nov 16:20:20 16:24:37 35° 97° (E) 16:28:51
AO-7 24 Nov 16:20:53 16:28:13 35° 263° (W) 16:35:38 29.400- 29.500
RS-15 24 Nov 16:25:14 16:36:14 87° 121° (ESE) 16:47:14 29.354- 29.394
CUTE-I 24 Nov 16:54:49 17:00:01 54° 71° (ENE) 17:05:14 437.470
O/OREOS (USA 219) 24 Nov 17:15:49 17:17:48 13° 262° (W) 17:19:47 437.305
PHONESAT 2.4 24 Nov 17:24:21 17:28:04 77° 178° (S) 17:31:48 2401.200-2431.200
JAS-2 24 Nov 17:24:27 17:31:15 36° 266° (W) 17:38:21 435.910
VERMONT LUNAR 24 Nov 17:42:09 17:45:47 75° 185° (S) 17:49:24 437.305
GONETS M04 24 Nov 17:43:42 17:50:22 23° 64° (ENE) 17:56:58
STRAND 1 24 Nov 17:50:03 17:53:59 22° 94° (E) 17:57:53 437.568
Cubesat XI-IV 24 Nov 17:53:02 17:58:10 46° 261° (W) 18:03:20 437.490
CUBESAT XI-V 24 Nov 17:57:23 18:01:21 27° 95° (E) 18:05:15 437.345
MOZHAYETS 4 24 Nov 17:57:55 18:01:39 24° 293° (WNW) 18:05:22
PRISM 24 Nov 18:07:15 18:11:31 89° 288° (WNW) 18:15:44 437.425
HO-68 24 Nov 18:31:16 18:36:58 26° 58° (ENE) 18:42:39 435.675
CUTE-I 24 Nov 18:36:34 18:40:23 20° 268° (W) 18:44:14 437.470
RS-15 24 Nov 18:40:32 18:50:03 33° 327° (NNW) 18:59:44 29.354- 29.394
SEEDS 24 Nov 18:47:58 18:49:25 12° 62° (ENE) 18:50:52 437.485
PCSat 24 Nov 18:53:09 18:57:45 29° 109° (ESE) 19:02:22 145.827
GOMX 1 24 Nov 18:54:06 18:56:14 13° 64° (ENE) 18:58:19 467.674
PHONESAT 2.4 24 Nov 19:03:09 19:06:47 53° 195° (SSW) 19:10:24 2401.200-2431.200
AIST 1 24 Nov 19:04:12 19:08:13 36° 91° (E) 19:12:17
AAUSAT CUBESAT 2 24 Nov 19:07:04 19:09:16 14° 64° (ENE) 19:11:28 437.432
CANX-2 24 Nov 19:11:30 19:15:00 26° 69° (ENE) 19:18:31 2200.000
BRITE-PL 24 Nov 19:12:41 19:16:56 28° 69° (ENE) 19:20:56 437.365/2234.400
COMPASS 1 24 Nov 19:20:08 19:23:20 22° 67° (ENE) 19:26:33 437.405
VERMONT LUNAR 24 Nov 19:20:43 19:24:04 35° 201° (SSW) 19:27:25 437.305
STRAND 1 24 Nov 19:28:31 19:33:21 44° 290° (WNW) 19:38:09 437.568
CUBESAT XI-V 24 Nov 19:34:40 19:38:46 31° 291° (WNW) 19:42:50 437.345
BEESAT 3 24 Nov 19:37:01 19:40:34 29° 114° (ESE) 19:44:11 437.485
GONETS M04 24 Nov 19:39:21 19:48:13 79° 265° (W) 19:56:58
CUTE 1.7 & AOD 2 24 Nov 19:45:38 19:49:45 57° 74° (ENE) 19:53:54 437.475
BEESAT 2 24 Nov 19:50:56 19:54:43 37° 116° (ESE) 19:58:35 435.950
DOVE 4 24 Nov 19:54:18 19:58:35 38° 72° (ENE) 20:02:40 437.250
UKube-1 24 Nov 20:05:32 20:09:20 30° 68° (ENE) 20:13:09 .
FUNcube-1 24 Nov 20:07:49 20:10:08 15° 64° (ENE) 20:12:26 145.935
HO-68 24 Nov 20:16:58 20:24:06 66° 257° (WSW) 20:31:16 435.675
Oscar 11 24 Nov 20:17:38 20:21:41 43° 72° (ENE) 20:25:47 145.826/435.025
AIST 2 24 Nov 20:18:45 20:22:38 37° 115° (ESE) 20:26:35 435.215
SEEDS 24 Nov 20:20:33 20:24:42 66° 259° (W) 20:28:53 437.485
CUBEBUG 2 24 Nov 20:25:22 20:29:06 30° 70° (ENE) 20:32:47 437.445
UWE-3 24 Nov 20:28:44 20:32:23 28° 70° (ENE) 20:35:59 435.000/436.395/437.385
GOMX 1 24 Nov 20:29:04 20:33:55 69° 258° (WSW) 20:38:26 467.674
PCSat 24 Nov 20:35:53 20:40:58 41° 307° (NW) 20:46:07 145.827
DX 1 24 Nov 20:38:57 20:43:19 72° 74° (ENE) 20:47:42 434.975-435.025
AAUSAT CUBESAT 2 24 Nov 20:40:28 20:44:30 51° 260° (W) 20:48:36 437.432
CINEMA 3 24 Nov 20:40:47 20:45:12 73° 76° (ENE) 20:49:27 145.822/145.860
PHONESAT 2.4 24 Nov 20:42:36 20:45:08 18° 211° (SSW) 20:47:39 2401.200-2431.200
AIST 1 24 Nov 20:42:49 20:46:01 20° 288° (WNW) 20:49:14
CANX-2 24 Nov 20:47:19 20:50:53 26° 265° (W) 20:54:28 2200.000
BRITE-PL 24 Nov 20:50:50 20:55:22 32° 263° (W) 20:59:37 437.365/2234.400
DELFI C3 24 Nov 20:52:50 20:56:53 89° 257° (WSW) 21:01:00 145.870
COMPASS 1 24 Nov 20:55:12 20:58:54 31° 264° (W) 21:02:39 437.405
ESTCUBE 1 24 Nov 20:58:12 21:00:39 15° 62° (ENE) 21:03:07 437.505/2401.250
RS-15 24 Nov 20:59:29 21:07:13 21° 2° (N) 21:15:07 29.354- 29.394
50 SAT 24 Nov 20:59:34 21:02:56 26° 69° (ENE) 21:06:18 437.505
HUMSAT D 24 Nov 21:00:50 21:04:32 33° 70° (ENE) 21:08:14 437.325/437.525
VELOX 1 24 Nov 21:02:42 21:06:52 39° 70° (ENE) 21:11:03 145.980
ZACube-1 24 Nov 21:06:25 21:10:36 64° 75° (ENE) 21:14:44 437.345
BEESAT 3 24 Nov 21:15:10 21:18:46 28° 312° (NW) 21:22:25 437.485
CUTE 1.7 & AOD 2 24 Nov 21:24:24 21:26:03 12° 270° (W) 21:27:42 437.475
AISAT 24 Nov 21:27:43 21:32:12 75° 75° (ENE) 21:36:41 437.250
BEESAT 2 24 Nov 21:29:45 21:33:07 24° 314° (NW) 21:36:33 435.950
DOVE 4 24 Nov 21:33:02 21:36:28 20° 266° (W) 21:39:46 437.250
GONETS M04 24 Nov 21:39:06 21:43:28 15° 285° (WNW) 21:47:49
TIGRISAT 24 Nov 21:40:13 21:43:28 20° 94° (E) 21:46:45 435.000
UKube-1 24 Nov 21:41:56 21:45:29 24° 265° (W) 21:49:04 .
FUNcube-1 24 Nov 21:42:00 21:46:06 49° 260° (W) 21:50:10 145.935
CUBEBUG 1 24 Nov 21:46:11 21:50:22 41° 71° (ENE) 21:54:32 437.445
NANOSAT C BR1 24 Nov 21:48:12 21:50:47 16° 92° (E) 21:53:21 145.865
UNISAT 6 24 Nov 21:52:39 21:56:27 27° 96° (E) 22:00:18 437.425
Oscar 11 24 Nov 21:55:19 21:58:04 17° 268° (W) 22:00:50 145.826/435.025
QB50P1 24 Nov 21:57:27 22:00:35 20° 94° (E) 22:03:42 145.935-145.965
AIST 2 24 Nov 21:57:49 22:01:21 25° 314° (NW) 22:04:57 435.215
CUBEBUG 2 24 Nov 22:02:27 22:05:50 22° 265° (W) 22:09:10 437.445
UWE-3 24 Nov 22:05:29 22:08:55 24° 265° (W) 22:12:20 435.000/436.395/437.385
BUGSAT 1 24 Nov 22:15:10 22:18:34 25° 95° (E) 22:21:55 437.445
DX 1 24 Nov 22:19:31 22:20:02 10° 270° (W) 22:20:34 434.975-435.025
ANTELSAT 24 Nov 22:20:49 22:25:12 55° 100° (E) 22:29:38 437.575/2403.000
POPSAT HIP 1 24 Nov 22:21:27 22:25:23 36° 98° (E) 22:29:16 437.405
ESTCUBE 1 24 Nov 22:32:31 22:37:01 61° 259° (W) 22:41:33 437.505/2401.250
50 SAT 24 Nov 22:34:55 22:38:12 24° 265° (W) 22:41:30 437.505
HUMSAT D 24 Nov 22:37:22 22:40:25 20° 266° (W) 22:43:29 437.325/437.525
VELOX 1 24 Nov 22:40:21 22:43:36 20° 266° (W) 22:46:52 145.980
ZACube-1 24 Nov 22:46:40 22:47:23 10° 270° (W) 22:48:05 437.345
POLYITAN 1 24 Nov 22:53:57 22:58:12 89° 104° (ESE) 23:02:26 437.675
QB50P2 24 Nov 22:56:32 23:00:47 85° 284° (WNW) 23:05:01 145.880/145.840
DUCHIFAT 1 24 Nov 23:03:31 23:07:43 73° 285° (WNW) 23:11:54 145.980
AISAT 24 Nov 23:09:00 23:09:20 10° 271° (W) 23:09:41 437.250
TISAT 1 24 Nov 23:09:52 23:14:08 87° 76° (ENE) 23:18:26 437.305
RS-15 24 Nov 23:14:03 23:24:09 37° 37° (NE) 23:34:32 29.354- 29.394
SPROUT 24 Nov 23:15:28 23:19:48 85° 76° (ENE) 23:24:09 437.525
TIGRISAT 24 Nov 23:16:15 23:20:20 38° 289° (WNW) 23:24:29 435.000
AUBIESAT-1 24 Nov 23:17:33 23:21:06 30° 62° (ENE) 23:24:57 437.475
ISS 24 Nov 23:20:32 23:23:40 43° 139° (SE) 23:26:49 145.825
ITUPSAT 1 24 Nov 23:21:13 23:24:33 19° 63° (ENE) 23:27:54 437.325
M-CUBED/EXP-1 PRIME 24 Nov 23:21:39 23:25:21 36° 64° (ENE) 23:29:23 437.505
NANOSAT C BR1 24 Nov 23:22:53 23:26:53 43° 288° (WNW) 23:30:52 145.865
CUBEBUG 1 24 Nov 23:23:46 23:26:54 19° 267° (W) 23:30:02 437.445
UNISAT 6 24 Nov 23:29:25 23:33:11 28° 291° (WNW) 23:37:02 437.425
SWISSCUBE 24 Nov 23:31:57 23:35:54 26° 66° (ENE) 23:39:52 437.505
QB50P1 24 Nov 23:32:45 23:36:34 34° 290° (WNW) 23:40:22 145.935-145.965
CUSAT 1 24 Nov 23:34:39 23:39:08 69° 80° (E) 23:45:12 437.405
BUGSAT 1 24 Nov 23:50:37 23:54:01 26° 292° (WNW) 23:57:22 437.445
DANDE 24 Nov 23:54:46 23:59:06 89° 82° (E) 00:05:04 436.750
POPSAT HIP 1 24 Nov 23:58:01 00:01:02 19° 294° (WNW) 00:04:02 437.405
ANTELSAT 24 Nov 23:59:02 00:01:35 15° 296° (WNW) 00:04:09 437.575/2403.000
BEESAT 25 Nov 00:02:33 00:07:08 47° 71° (ENE) 00:11:45 436.000
KKS-1 25 Nov 00:50:11 00:54:04 30° 69° (ENE) 00:57:56 437.445
AUBIESAT-1 25 Nov 00:52:49 00:56:07 24° 262° (W) 00:59:41 437.475
MaSat-1 25 Nov 00:54:18 00:56:29 36° 247° (WSW) 00:58:43 437.345
YUBILEINY 25 Nov 00:56:32 01:02:51 23° 79° (E) 01:09:08 435.215
ITUPSAT 1 25 Nov 00:57:24 01:02:03 50° 260° (W) 01:06:46 437.325
ISS 25 Nov 00:57:30 01:00:25 28° 336° (NNW) 01:03:20 145.825
M-CUBED/EXP-1 PRIME 25 Nov 00:57:35 01:00:34 20° 263° (W) 01:03:46 437.505
SWISSCUBE 25 Nov 01:09:14 01:13:36 35° 263° (W) 01:18:01 437.505
Oscar 19 25 Nov 01:09:22 01:14:26 53° 100° (E) 01:19:28 437.125/150
CUSAT 1 25 Nov 01:19:51 01:22:10 13° 269° (W) 01:24:46 437.405
RS-15 25 Nov 01:26:26 01:37:40 79° 241° (WSW) 01:49:25 29.354- 29.394
BEESAT 25 Nov 01:41:55 01:45:13 19° 267° (W) 01:48:33 436.000
STARS 25 Nov 01:47:55 01:52:20 84° 76° (ENE) 01:56:45 437.465
HORYU 2 25 Nov 01:59:02 02:01:07 13° 91° (E) 02:03:13 437.375
ITAMSAT 1 25 Nov 01:59:43 02:04:51 60° 101° (ESE) 02:09:56 435.822/435.867
Gurwin Techsat 1B 25 Nov 02:24:51 02:30:07 60° 101° (E) 02:35:21 435.225
KKS-1 25 Nov 02:26:59 02:30:41 26° 265° (W) 02:34:24 437.445
AO-7 25 Nov 02:30:45 02:35:15 15° 89° (E) 02:39:44 29.400- 29.500
ISS 25 Nov 02:35:58 02:37:52 14° 356° (N) 02:39:46 145.825
Oscar 19 25 Nov 02:49:40 02:53:22 20° 297° (WNW) 02:57:04 437.125/150
YUBILEINY 25 Nov 02:49:51 02:58:39 76° 279° (W) 03:07:29 435.215
SO-50 25 Nov 02:51:18 02:54:53 24° 112° (ESE) 02:58:33 436.795
MOZHAYETS 4 25 Nov 03:22:41 03:26:47 34° 70° (ENE) 03:30:57
HORYU 2 25 Nov 03:33:45 03:38:10 60° 287° (WNW) 03:42:36 437.375
PCSat 25 Nov 03:40:24 03:45:00 27° 48° (NE) 03:49:34 145.827
ITAMSAT 1 25 Nov 03:40:25 03:43:51 18° 298° (WNW) 03:47:16 435.822/435.867
RS-15 25 Nov 03:41:24 03:48:15 18° 261° (W) 03:55:17 29.354- 29.394
BEESAT 3 25 Nov 03:56:46 04:00:08 23° 46° (NE) 04:03:29 437.485
Gurwin Techsat 1B 25 Nov 04:06:00 04:09:35 19° 298° (WNW) 04:13:11 435.225
BEESAT 2 25 Nov 04:11:07 04:14:46 28° 48° (NE) 04:18:23 435.950
ISS 25 Nov 04:12:57 04:15:28 20° 17° (NNE) 04:17:58 145.825
AO-7 25 Nov 04:20:48 04:29:13 81° 107° (ESE) 04:37:36 29.400- 29.500
SO-50 25 Nov 04:30:54 04:35:10 40° 310° (NW) 04:39:36 436.795
JAS-2 25 Nov 04:34:23 04:41:05 42° 95° (E) 04:47:00 435.910
AIST 2 25 Nov 04:40:40 04:44:26 28° 48° (NE) 04:48:09 435.215
YUBILEINY 25 Nov 04:52:11 04:57:06 16° 301° (WNW) 05:02:02 435.215
PRISM 25 Nov 04:58:07 05:02:17 69° 74° (ENE) 05:06:31 437.425
MOZHAYETS 4 25 Nov 05:00:21 05:04:04 24° 266° (W) 05:07:48
CUBESAT XI-V 25 Nov 05:01:10 05:05:09 28° 68° (ENE) 05:09:09 437.345
STRAND 1 25 Nov 05:05:55 05:10:29 33° 67° (ENE) 05:15:04 437.568
CUTE-I 25 Nov 05:12:42 05:16:38 21° 93° (E) 05:20:32 437.470
PCSat 25 Nov 05:23:26 05:28:38 49° 247° (WSW) 05:33:49 145.827
BEESAT 3 25 Nov 05:34:35 05:38:31 39° 244° (WSW) 05:42:23 437.485
O/OREOS (USA 219) 25 Nov 05:46:42 05:51:10 69° 110° (ESE) 05:55:38 437.305
ISS 25 Nov 05:49:12 05:52:30 84° 33° (NNE) 05:55:48 145.825
BEESAT 2 25 Nov 05:49:20 05:53:04 31° 246° (WSW) 05:56:44 435.950
Cubesat XI-IV 25 Nov 06:09:57 06:15:17 71° 103° (ESE) 06:20:35 437.490
AO-7 25 Nov 06:14:45 06:21:07 25° 307° (NW) 06:27:30 29.400- 29.500
AIST 2 25 Nov 06:19:14 06:23:03 31° 246° (WSW) 06:26:49 435.215
JAS-2 25 Nov 06:19:33 06:25:58 36° 296° (WNW) 06:31:45 435.910
CUBESAT XI-V 25 Nov 06:38:18 06:42:29 31° 264° (W) 06:46:41 437.345
STRAND 1 25 Nov 06:45:09 06:49:38 30° 264° (W) 06:54:09 437.568
GONETS M04 25 Nov 06:45:59 06:52:42 25° 81° (E) 06:59:26
AIST 1 25 Nov 06:48:36 06:52:59 75° 264° (W) 06:57:19
CUTE-I 25 Nov 06:51:50 06:56:58 50° 289° (WNW) 07:02:04 437.470
ISS 25 Nov 07:27:41 07:28:41 11° 231° (SW) 07:29:41 145.825
O/OREOS (USA 219) 25 Nov 07:28:46 07:31:04 14° 308° (NW) 07:33:22 437.305
HO-68 25 Nov 07:45:22 07:51:00 24° 93° (E) 07:56:35 435.675
Cubesat XI-IV 25 Nov 07:51:35 07:54:46 16° 300° (WNW) 07:57:56 437.490
SEEDS 25 Nov 08:05:59 08:09:12 21° 94° (E) 08:12:24 437.485
AAUSAT CUBESAT 2 25 Nov 08:24:28 08:27:56 24° 95° (E) 08:31:24 437.432
DX 1 25 Nov 08:29:36 08:31:15 12° 91° (E) 08:32:55 434.975-435.025
GOMX 1 25 Nov 08:31:08 08:34:48 29° 97° (E) 08:38:31 467.674
CANX-2 25 Nov 08:32:01 08:36:13 50° 99° (E) 08:40:24 2200.000
DELFI C3 25 Nov 08:35:23 08:37:24 13° 91° (E) 08:39:24 145.870
CINEMA 3 25 Nov 08:36:46 08:39:21 16° 93° (E) 08:41:58 145.822/145.860
COMPASS 1 25 Nov 08:38:44 08:42:45 39° 98° (E) 08:46:44 437.405
GONETS M04 25 Nov 08:39:54 08:48:39 70° 280° (W) 08:57:31
TIGRISAT 25 Nov 08:40:13 08:43:06 18° 65° (ENE) 08:45:58 435.000
NANOSAT C BR1 25 Nov 08:42:24 08:44:31 14° 63° (ENE) 08:46:38 145.865
QB50P1 25 Nov 08:51:26 08:54:12 17° 65° (ENE) 08:56:57 145.935-145.965
UNISAT 6 25 Nov 08:52:42 08:56:09 25° 68° (ENE) 08:59:37 437.425
BRITE-PL 25 Nov 08:54:59 08:59:08 79° 102° (ESE) 09:03:20 437.365/2234.400
ZACube-1 25 Nov 08:57:07 08:58:45 12° 91° (E) 09:00:23 437.345
BUGSAT 1 25 Nov 09:06:10 09:09:18 20° 66° (ENE) 09:12:25 437.445
CUTE 1.7 & AOD 2 25 Nov 09:06:46 09:11:03 71° 285° (WNW) 09:15:20 437.475
POPSAT HIP 1 25 Nov 09:15:01 09:18:43 30° 69° (ENE) 09:22:25 437.405
ANTELSAT 25 Nov 09:20:34 09:24:41 49° 73° (ENE) 09:28:49 437.575/2403.000
AISAT 25 Nov 09:20:36 09:22:58 14° 91° (E) 09:25:20 437.250
UKube-1 25 Nov 09:28:52 09:33:08 53° 101° (E) 09:37:21 .
DOVE 4 25 Nov 09:30:33 09:34:44 78° 284° (WNW) 09:39:00 437.250
FUNcube-1 25 Nov 09:30:42 09:34:22 28° 96° (E) 09:38:05 145.935
